Tracking 19817 objects as of 19-Aug-2019
HD Live streaming from Space Station
objects crossing your sky now

FENGYUN 1C DEB

Track FENGYUN 1C DEB now!
10-day predictions


NORAD ID: 31327
Int'l Code: 1999-025BQF
Perigee: 553.0 km
Apogee: 802.5 km
Inclination: 99.0 °
Period: 98.2 minutes
Semi major axis: 7048 km
RCS: 0.0089 m2 (small)
Launch date: May 10, 1999
Source: People's Republic of China (PRC)
Launch site: Taiyaun Space Center, China (TSC)

Note: This is SATELLITE DEBRIS
aabbcc
Your satellite tracking list
Your tracking list is empty




NASA's NSSDC Master Catalog

Two Line Element Set (TLE):
1 31327U 99025BQF 19230.00462123 +.00000175 +00000-0 +34743-4 0  9992
2 31327 098.9702 300.3693 0177025 040.7990 320.6312 14.67011509660270
Source of the keplerian elements: AFSPC